Concordia, KS

11:16 AM CST on December 04, 2016 (GMT -0600)
Blosser Municipal

Weather History for KCNK - August, 2013

Change the Weather History Date:

Tuesday, August 27, 2013

  Actual Average Record
Temperature  
Mean Temperature 83 °F 75 °F  
Max Temperature 93 °F 87 °F 107 °F (1913)
Min Temperature 72 °F 64 °F 47 °F (1906)
Degree Days  
Heating Degree Days 0 0  
Month to date heating degree days 0 0  
Since 1 June heating degree days 22 13  
Since 1 July heating degree days 7 0  
Cooling Degree Days 18 10  
Month to date cooling degree days 262 337  
Year to date cooling degree days 1014 1127  
Since 1 June cooling degree days 911 1038  
Growing Degree Days 32 (Base 50)    
Moisture  
Dew Point 64 °F    
Average Humidity 58    
Maximum Humidity 79    
Minimum Humidity 36    
Precipitation  
Precipitation 0.00 in 0.10 in 1.86 in (1968)
Month to date precipitation 6.51 2.76  
Year to date precipitation 23.50 20.72  
Snow  
Snow 0.00 in 0.00 in 0.00 in ()
Month to date snowfall 0.0 0.0  
Year to date snowfall 20.3 13.7  
Since 1 July snowfall 0.0 0.0  
Snow Depth 0.00 in    
Sea Level Pressure  
Sea Level Pressure 29.95 in    
Wind  
Wind Speed 14 mph (SSW)    
Max Wind Speed 21 mph    
Max Gust Speed 26 mph    
Visibility 10 miles    
Events      
T = Trace of Precipitation, MM = Missing Value Source: NWS Daily Summary

Daily Weather History Graph

Daily Weather History Graph

Search for Another Location

Airport or City:

Trip Planner

Search our weather history database for the weather conditions in past years. The results will help you decide how hot, cold, wet, or windy it might be!

Date:

Astronomy

Aug. 27, 2013 Rise Set
Actual Time 6:54 AM CDT 8:08 PM CDT
Civil Twilight 6:26 AM CDT 8:36 PM CDT
Nautical Twilight 5:53 AM CDT 9:09 PM CDT
Astronomical Twilight 5:18 AM CDT 9:44 PM CDT
Moon No Moon Rise 1:51 PM CDT (8/27)
Length of Visible Light 14h 10m
Length of Day
13h 14m
Waning Gibbous, 57% of the Moon is Illuminated
Aug 27
Waning Gibbous
Aug 28
Last Quarter
Sep 5
New
Sep 12
First Quarter
Sep 19
Full

Hourly Weather History & Observations

Time (CDT) Temp. Heat Index Dew Point Humidity Pressure Visibility Wind Dir Wind Speed Gust Speed Precip Events Conditions
12:55 AM 77.0 °F - 64.9 °F 66% 29.96 in 10.0 mi South 17.3 mph - N/A   Clear
1:55 AM 75.9 °F - 66.0 °F 71% 29.96 in 10.0 mi SSW 18.4 mph 24.2 mph N/A   Clear
2:55 AM 75.0 °F - 66.0 °F 73% 29.96 in 10.0 mi SSW 16.1 mph 23.0 mph N/A   Clear
3:55 AM 73.9 °F - 64.9 °F 73% 29.96 in 10.0 mi SSW 13.8 mph - N/A   Clear
4:55 AM 73.9 °F - 64.9 °F 73% 29.97 in 10.0 mi SSW 11.5 mph - N/A   Clear
5:55 AM 73.0 °F - 64.9 °F 76% 29.97 in 10.0 mi SSW 11.5 mph - N/A   Clear
6:55 AM 72.0 °F - 64.9 °F 78% 29.97 in 10.0 mi SSW 11.5 mph - N/A   Clear
7:55 AM 73.0 °F - 64.9 °F 76% 29.98 in 10.0 mi SSW 16.1 mph - N/A   Clear
8:55 AM 75.9 °F - 66.0 °F 71% 29.98 in 10.0 mi SSW 17.3 mph 23.0 mph N/A   Clear
9:55 AM 80.1 °F 82.1 °F 66.0 °F 62% 29.97 in 10.0 mi SSW 13.8 mph 20.7 mph N/A   Clear
10:55 AM 84.0 °F 86.5 °F 66.9 °F 56% 29.97 in 10.0 mi SSW 15.0 mph - N/A   Clear
11:55 AM 88.0 °F 90.7 °F 66.9 °F 49% 29.97 in 10.0 mi SSW 15.0 mph 25.3 mph N/A   Clear
12:55 PM 90.0 °F 93.6 °F 68.0 °F 48% 29.96 in 10.0 mi SSW 12.7 mph 20.7 mph N/A   Clear
1:55 PM 91.0 °F 93.8 °F 66.0 °F 44% 29.94 in 10.0 mi SSW 19.6 mph 23.0 mph N/A   Clear
2:55 PM 93.0 °F 95.0 °F 64.9 °F 39% 29.93 in 10.0 mi SW 10.4 mph - N/A   Clear
3:55 PM 93.0 °F 93.8 °F 62.1 °F 36% 29.92 in 10.0 mi SSW 15.0 mph - N/A   Clear
4:55 PM 91.9 °F 92.5 °F 62.1 °F 37% 29.91 in 10.0 mi SSW 11.5 mph - N/A   Clear
5:55 PM 90.0 °F 90.6 °F 63.0 °F 40% 29.91 in 10.0 mi South 13.8 mph - N/A   Clear
6:55 PM 88.0 °F 88.7 °F 63.0 °F 43% 29.91 in 10.0 mi South 11.5 mph - N/A   Clear
7:55 PM 82.0 °F 83.0 °F 62.1 °F 51% 29.91 in 10.0 mi South 9.2 mph - N/A   Clear
8:55 PM 79.0 °F - 62.1 °F 56% 29.92 in 10.0 mi South 10.4 mph - N/A   Clear
9:55 PM 80.1 °F 81.1 °F 61.0 °F 52% 29.92 in 10.0 mi South 13.8 mph - N/A   Clear
10:55 PM 78.1 °F - 61.0 °F 56% 29.93 in 10.0 mi South 12.7 mph - N/A   Clear
11:55 PM 75.9 °F - 61.0 °F 60% 29.93 in 10.0 mi South 13.8 mph - N/A   Clear